Location: Plzen
(49.7500°N, 13.3670°E)
Time: 05:53:27
(UTC+02:00)

ISS - Pass Details

Date: 24 May 2021
Orbit: 417 x 422 km, 51.6° (Epoch: 13 June)

Event Time Altitude Azimuth Distance (km) Brightness Sun altitude
Rises 22:59:13 0° 287° (WNW) 2,368 0.8 -14.1°
Reaches altitude 10° 23:01:19 10° 287° (WNW) 1,503 -0.3 -14.3°
Maximum altitude 23:04:41 82° 201° (SSW) 429 -3.9 -14.6°
Enters shadow 23:06:29 26° 114° (ESE) 875 -2.6 -14.7°
